www.pogodaiklimat.ru

Погода и климат >> Архив погоды >> Украина >> Любешов


ПОГОДА в Любешове

  • Прогноз погоды в Любешове
  • Монитор погоды в Любешове

АРХИВ ПОГОДЫ в Любешове

Время (UTC), дата Ветер
(напр.,м/с)
 
Видим.   Явления Облачность Т
(С)
Тd
(С)
f
(%)
Тe
(С)
Тes
(С)
Комфортность P
(гПа)
Po
(гПа)
Тmin
(С)
Tmax
(С)
R
(мм)
R24
(мм)
S
(см)
03 9.09 В 2 10 км 1/0
[Ci fib]
+15.0 +10.8 76 +15 +15 1020.0 1001.8
06 9.09 ЮВ 2 10 км 3/0
[Ci sp]
+17.6 +10.9 65 +18 +20 1020.0 1002.0 +13.9
09 9.09 ЮВ 4 10 км 3/0
[Ci sp]
+25.3 +8.7 35 +26 +30 жарко 1019.0 1001.5
12 9.09 ЮВ 6 10 км 6/0
[Ci]
+27.4 +5.6 25 +26 +28 жарко 1018.0 1000.6
15 9.09 ЮВ 4 10 км 9/0
[Ci]
+25.9 +6.0 28 +25 +25 комфорт 1016.0 998.5
18 9.09 В 3 10 км 9/0
[Cs]
+21.1 +6.2 38 +22 +22 комфорт 1016.0 998.3 +27.6
21 9.09 В 3 10 км 3/0
[Cs]
+18.0 +6.8 48 +18 +18 1017.0 999.0
00 10.09 ЮВ 3 10 км ясно +16.0 +6.1 52 +16 +16 1017.0 998.9
03 10.09 ЮВ 1 10 км 1/0
[Ac lent]
+13.6 +6.5 62 +14 +14 1017.0 998.8
06 10.09 ЮВ 3 10 км 8/6 660 м
[Cb calv Ac lent Ci fib]
+15.5 +7.3 58 +15 +15 1019.0 1000.9 +13.0
09 10.09 Ю 2 10 км 10 баллов +18.4 +10.2 59 +19 +19 1020.0 1002.0
12 10.09 Ю 2 10 км {ливн. осадки} 8/0
[Ac trans Cc]
+20.6 +10.7 53 +23 +23 комфорт 1020.0 1002.2
15 10.09 ЮЗ 2 10 км 9/0
[Ac lent Cc]
+22.2 +11.6 51 +24 +24 комфорт 1020.0 1002.3
18 10.09 СЗ 1 10 км 8/3 600 м
[Sc Ac trans]
+18.4 +12.4 68 +20 +20 1022.0 1004.0 +23.8 0.0
21 10.09 штиль 0 10 км 8/0
[Ac lent]
+15.6 +11.8 78 +15 +15 1023.0 1004.8
00 11.09 штиль 0 10 км 4/4 600 м
[Sc]
+14.0 +11.9 87 +14 +14 1024.0 1005.7
03 11.09 штиль 0 10 км 9/5 600 м
[Sc Ac trans]
+13.0 +11.6 91 +12 +12 1024.0 1005.6
06 11.09 СВ 2 10 км 4/0
[Ac lent Ci fib]
+16.4 +9.8 65 +17 +18 1025.0 1006.8 +12.5
09 11.09 СВ 2 10 км 6/0
[Ac trans Ci fib]
+21.7 +12.0 54 +24 +27 комфорт 1025.0 1007.2
12 11.09 Ю 3 10 км 3/0
[Ci fib]
+26.1 +11.0 39 +27 +32 жарко 1024.0 1006.4
15 11.09 Ю 2 10 км 4/0
[Cc]
+26.7 +9.1 33 +27 +28 жарко 1023.0 1005.5
18 11.09 ЮВ 1 10 км 8/0
[Ac und]
+20.0 +13.9 68 +23 +23 комфорт 1024.0 1006.1 +27.4
21 11.09 ЮВ 1 10 км 3/0
[Ci fib]
+15.4 +10.6 73 +16 +16 1024.0 1005.8
00 12.09 Ю 1 10 км 3/0
[Ci fib]
+12.6 +9.1 79 +13 +13 1025.0 1006.6
03 12.09 штиль 0 10 км 1/0
[Ci fib]
+9.6 +6.9 83 +9 +9 1025.0 1006.4
06 12.09 Ю 1 10 км 4/0
[Cc]
+13.8 +7.1 64 +14 +16 1026.0 1007.6 +9.3
09 12.09 З 2 10 км 4/0
[Ci sp]
+22.1 +11.2 50 +24 +30 комфорт 1026.0 1008.2
12 12.09 З 3 10 км 8/3 1000 м
[Cu hum Ac trans Ci fib]
+26.5 +13.9 46 +29 +29 жарко 1025.0 1007.5
15 12.09 СЗ 3 10 км 3/3 1000 м
[Sc diur, vesp]
+25.7 +12.9 45 +28 +28 жарко 1025.0 1007.4
18 12.09 штиль 0 10 км 1/0
[Ci fib]
+17.8 +13.1 74 +18 +18 1026.0 1007.9 +27.5
21 12.09 З 1 10 км ясно +15.6 +11.0 74 +16 +16 1026.0 1007.8
00 13.09 штиль 0 10 км ясно +13.3 +9.9 80 +13 +13 1027.0 1008.6
03 13.09 штиль 0 10 км 6/0
[Ci]
+10.8 +9.2 90 +10 +10 1027.0 1008.4
06 13.09 З 2 10 км 3/0
[Ci sp]
+13.8 +10.2 79 +13 +15 1027.0 1008.6 +10.1
09 13.09 З 4 10 км 3 балла +21.3 +9.5 47 +23 +27 комфорт 1026.0 1008.1
12 13.09 З 5 10 км 6/6 870 м
[Sc]
+22.5 +8.2 40 +24 +25 комфорт 1024.0 1006.2
15 13.09 З 3 10 км 10 баллов +22.3 +10.4 47 +24 +24 комфорт 1023.0 1005.2
18 13.09 ЮЗ 4 10 км 10/10 750 м
[Sc]
+20.6 +11.8 57 +23 +23 комфорт 1022.0 1004.1 +23.0
21 13.09 З 4 10 км 10 баллов +17.6 +12.1 70 +17 +17 1023.0 1004.9
00 14.09 СЗ 3 10 км в посл. час ливневой дождь 10/10 540 м
[Cb cap]
+14.0 +12.9 93 +13 +13 1025.0 1006.7 0.3
03 14.09 СЗ 3 10 км 10 баллов +14.4 +12.6 89 +13 +13 1026.0 1007.7
06 14.09 СЗ 3 10 км ясно +11.6 +9.2 85 +10 +11 1028.0 1009.5 +10.7 0.3
09 14.09 З 4 10 км 6 баллов +17.1 +8.8 58 +17 +19 1028.0 1009.8
12 14.09 СЗ 4 10 км 8/4 600 м
[Cb calv Ac trans Ci fib]
+17.8 +15.9 89 +18 +20 1027.4 1009.2
15 14.09 СЗ 4 10 км 3 балла +18.2 +3.6 38 +18 +19 1027.0 1008.9
18 14.09 З 2 10 км ясно +12.8 +5.5 61 +12 +12 1028.0 1009.5 +19.5
21 14.09 З 1 10 км ясно +9.8 +5.4 74 +9 +9 1028.0 1009.3
00 15.09 З 2 10 км 10/0
[Cs]
+7.9 +4.5 79 +6 +6 1028.0 1009.2
03 15.09 ЮЗ 1 10 км ясно +5.9 +4.2 89 +5 +5 1027.0 1008.1
06 15.09 ЮЗ 2 10 км 3/0
[Ci fib]
+8.4 +5.3 81 +7 +8 1026.0 1007.3 +4.9
09 15.09 ЮЗ 5 10 км 3 балла +17.0 +5.0 45 +16 +19 1024.0 1005.9
12 15.09 ЮЗ 6 10 км 10 баллов +19.4 +3.9 36 +19 +19 1020.0 1002.1
15 15.09 ЮЗ 5 10 км 10 баллов +18.8 +4.2 38 +19 +19 1017.0 999.1
18 15.09 ЮЗ 3 10 км 9/0
[Ci]
+16.2 +5.5 49 +16 +16 1015.0 997.0 +20.5
21 15.09 ЮЗ 4 10 км 10 баллов +16.0 +6.1 52 +15 +15 1013.0 995.0

 

Местоположение метеостанции Любешов (Волынская область, Украина): широта 51.67 долгота 25.27 высота над уровнем моря 152 м.

В архиве по умолчанию представлена погода в Любешове за последнюю неделю. Архивные данные за месяц целиком и за предыдущие месяцы, начиная с января 2011 года, Вы можете получить, выбрав интересующий диапазон дат из раскрывающегося списка и нажав кнопку "Ввод!".


*Определитесь, кто Вы:
робот инопланетянин человек

Внимание! Время в таблицах - всемирное. Для получения местного времени необходимо прибавить поправку, которая равна 2 ч.

Смотрите также архив погоды в соседних городах и на ближайших метеорологических станциях:

Погода в Маневичах (Волынская область, Украина) (47 км)
Погода в Свитязи (Волынская область, Украина) (54 км)
Погода в Дрогичине (Брестская область, Беларусь) (60 км)
Погода в Ковеле (Волынская область, Украина) (65 км)
Погода в Пинске (Брестская область, Беларусь) (74 км)
Погода в Сарнах (Ровенская область, Украина) (103 км)
Погода в Луцке (Волынская область, Украина) (109 км)
Погода в Пружанах (Брестская область, Беларусь) (111 км)
Погода в Владимире-Волынском (Волынская область, Украина) (114 км)
Погода в Ивацевичах (Брестская область, Беларусь) (115 км)

Пояснения к столбцам:

Ветер - указаны скорость ветра в м/с - средняя за 10 мин, порывы в срок и между сроками (в фигурных скобках) и направление, откуда дует ветер: С - северный, СВ - северо-восточный, В - восточный, ЮВ - юго-восточный, Ю - южный, ЮЗ - юго-западный, З - западный, СЗ - северо-западный.
Видимость - горизонтальная дальность видимости в метрах или километрах. При видимости от 1 до 10 км при отсутствии осадков обычно наблюдается дымка, при ухудшении видимости до 1 км и менее - туман. В сухую погоду видимость может ухудшаться дымом, пылью или мглою.
Явления - указаны атмосферные явления, наблюдавшиеся в срок или в последний час перед сроком; фигурными скобками обозначены явления, наблюдавшиеся между сроками (за 1-3 часа до срока); квадратными скобками обозначены град или гололедные отложения с указанием их диаметра в мм.
Облачность - указаны через наклонную черту общая и нижняя облачность в баллах и высота нижней границы облаков в метрах; квадратными скобками обозначены формы облаков: Ci - перистые, Cs - перисто-слоистые, Cc - перисто-кучевые, Ac - высококучевые, As - высокослоистые, Sc - слоисто-кучевые, Ns - слоисто-дождевые, Cu - кучевые, Cb - кучево-дождевые. Подробнее классификацию облаков см. в Атласе облаков (PDF).
T - Температура воздуха - температура, измеренная на высоте 2 м над землей.
Td - Температура точки росы - температура, при понижении до которой содержащийся в воздухе водяной пар достигнет насыщения.
f - Относительная влажность воздуха - влажноcть воздуха, измеренная на высоте 2 м над землей.
Te - Эффективная температура - температура, которую ощущает одетый по сезону человек в тени. Характеристика душности погоды. При расчете учитывается влияние влажности воздуха и скорости ветра на теплоощущения человека.
Tes - Эффективная температура на солнце - температура, которую ощущает человек, с поправкой на солнечный нагрев. Характеристика знойности погоды. Зависит от высоты солнца над горизонтом, облачности и скорости ветра. Ночью, в пасмурную погоду, а также при ветре 12 м/с и более поправка равна нулю.
P - Атмосферное давление - приведенное к уровню моря атмосферное давление.
Po - Атмосферное давление - измеренное на уровне метеостанции атмосферное давление.
Tmin - Минимальная температура - минимум температуры воздуха на высоте 2 м над землей.
Tmax - Максимальная температура - максимум температуры воздуха на высоте 2 м над землей.
R - Количество осадков - Количество выпавших осадков за период времени, мм. При наведении курсора мыши на число - период времени, за который выпало указанное количество осадков.
R24 - Количество осадков - Количество выпавших осадков за 24 часа, мм.
S - Снежный покров - Высота снежного покрова, см. При наведении курсора мыши на число - состояние снежного покрова и степень покрытия местности в баллах.